sat.trackr.live / text

‹ back to catalog

STARLINK-5818

NORAD 55785 · 2023-028AW

PAYLOAD ACTIVE UNKNOWN

§ Identity

Operator
Country
US
Launch date
2023-03-03
Launch site
AFWTR
Launch vehicle
Mass (kg)
RCS (m²)

Purposes: comms

External: N2YO · Heavens-Above · Gunter

§ Orbital elements

Epoch: 2026-05-25T01:43:18.624576Z

Period
96.11 min
Inclination
69.9999°
Eccentricity
0.0002129
Mean motion
14.98333280 rev/d
Perigee alt
570.6 km
Apogee alt
573.5 km
Semi-major
6,950.2 km
B*
9.0868e-5
RAAN
12.0260°
Arg perigee
275.4955°
Mean anomaly
84.5961°
Rev number
17,846

§ Raw data

STARLINK-58181 55785U 23028AW  26145.07174334  .00000992  00000+0  90868-4 0  99962 55785  69.9999  12.0260 0002129 275.4955  84.5961 14.98333280178465

JSON: /api/v1/satellites/55785 · /tle

For live sub-satellite position, see the globe view (requires WebGL).

§ Visibility from observer

Set your observer location to see the next 7 days of passes ≥ 10°. The values pass through the URL so the page stays shareable.

No JS? Fill the form by hand. The geolocation button needs JavaScript.